EN

Hourly Weather Lucaseuca

Today, 4 March, Thursday

Time Temperature Precipitation Wind Pressure Humidity
00:00 +5°C° 0 mm 1 mps 762 mmHg 68%
01:00 +4°C° 0 mm 2 mps 762 mmHg 71%
02:00 +3°C° 0 mm 2 mps 761 mmHg 77%
03:00 +3°C° 0 mm 2 mps 760 mmHg 80%
04:00 +3°C° 0 mm 2 mps 760 mmHg 82%
05:00 +3°C° 0 mm 2 mps 759 mmHg 85%
06:00 +3°C° 0 mm 2 mps 758 mmHg 85%
07:00 +3°C° 0 mm 2 mps 758 mmHg 85%
08:00 +4°C° 0 mm 2 mps 757 mmHg 85%
09:00 +6°C° 0 mm 2 mps 757 mmHg 77%
10:00 +7°C° 0 mm 3 mps 756 mmHg 69%
11:00 +9°C° 0 mm 3 mps 756 mmHg 62%
12:00 +11°C° 0 mm 3 mps 755 mmHg 56%
13:00 +12°C° 0 mm 3 mps 754 mmHg 50%
14:00 +13°C° 0 mm 3 mps 754 mmHg 44%
15:00 +13°C° 0 mm 3 mps 753 mmHg 45%
16:00 +14°C° 0 mm 2 mps 753 mmHg 45%
17:00 +14°C° 0 mm 2 mps 753 mmHg 46%
18:00 +13°C° 0 mm 1 mps 752 mmHg 48%
19:00 +12°C° 0 mm 1 mps 752 mmHg 49%
20:00 +10°C° 0 mm 0 mps 752 mmHg 51%
21:00 +9°C° 0 mm 0 mps 752 mmHg 52%
22:00 +9°C° 0 mm 0 mps 752 mmHg 52%
23:00 +9°C° 0 mm 0 mps 752 mmHg 53%

Tomorrow, 5 March, Friday

Time Temperature Precipitation Wind Pressure Humidity
00:00 +9°C° 0 mm 1 mps 752 mmHg 54%
01:00 +9°C° 0 mm 1 mps 752 mmHg 56%
02:00 +9°C° 0 mm 1 mps 752 mmHg 57%
03:00 +8°C° 0 mm 1 mps 752 mmHg 62%
04:00 +8°C° 0 mm 1 mps 752 mmHg 66%
05:00 +7°C° 0 mm 1 mps 751 mmHg 70%
06:00 +7°C° 0 mm 1 mps 751 mmHg 72%
07:00 +7°C° 0 mm 1 mps 751 mmHg 73%
08:00 +7°C° 0 mm 1 mps 751 mmHg 75%
09:00 +8°C° 0 mm 2 mps 751 mmHg 68%
10:00 +9°C° 0 mm 2 mps 751 mmHg 62%
11:00 +11°C° 0 mm 3 mps 751 mmHg 55%
12:00 +12°C° 0 mm 3 mps 751 mmHg 52%
13:00 +13°C° 0 mm 4 mps 751 mmHg 49%
14:00 +14°C° 0 mm 4 mps 751 mmHg 46%
15:00 +12°C° 0.1 mm 5 mps 751 mmHg 57%
16:00 +9°C° 0.1 mm 6 mps 751 mmHg 67%
17:00 +6°C° 0.1 mm 7 mps 752 mmHg 78%
18:00 +5°C° 0.1 mm 7 mps 753 mmHg 81%
19:00 +4°C° 0.1 mm 7 mps 754 mmHg 84%
20:00 +2°C° 0.1 mm 7 mps 755 mmHg 87%
21:00 +2°C° 0 mm 7 mps 756 mmHg 82%
22:00 +2°C° 0 mm 6 mps 756 mmHg 77%
23:00 +1°C° 0 mm 6 mps 757 mmHg 73%

Day after tomorrow, 6 March, Saturday

Time Temperature Precipitation Wind Pressure Humidity
00:00 +1°C° 0 mm 6 mps 758 mmHg 73%
01:00 -1°C° 0 mm 6 mps 758 mmHg 74%
02:00 0°C° 0 mm 5 mps 759 mmHg 74%
03:00 -1°C° 0 mm 5 mps 759 mmHg 72%
04:00 -1°C° 0 mm 5 mps 760 mmHg 71%
05:00 -1°C° 0 mm 5 mps 760 mmHg 69%
06:00 -1°C° 0 mm 5 mps 761 mmHg 64%
07:00 -2°C° 0 mm 5 mps 761 mmHg 60%
08:00 -3°C° 0 mm 6 mps 762 mmHg 55%
09:00 -2°C° 0 mm 6 mps 762 mmHg 50%
10:00 0°C° 0 mm 5 mps 762 mmHg 45%
11:00 +1°C° 0 mm 5 mps 763 mmHg 40%
12:00 +1°C° 0 mm 5 mps 763 mmHg 37%
13:00 +2°C° 0 mm 5 mps 763 mmHg 33%
14:00 +2°C° 0 mm 5 mps 763 mmHg 30%
15:00 +2°C° 0 mm 5 mps 763 mmHg 31%
16:00 +2°C° 0 mm 5 mps 763 mmHg 31%
17:00 +2°C° 0 mm 5 mps 763 mmHg 32%
18:00 +1°C° 0 mm 4 mps 764 mmHg 38%
19:00 +1°C° 0 mm 3 mps 764 mmHg 44%
20:00 +1°C° 0 mm 2 mps 765 mmHg 51%
21:00 +1°C° 0 mm 2 mps 765 mmHg 53%
22:00 +1°C° 0 mm 2 mps 766 mmHg 54%
23:00 +1°C° 0 mm 1 mps 766 mmHg 56%

7 March, Sunday

Time Temperature Precipitation Wind Pressure Humidity
00:00 +1°C° 0 mm 1 mps 766 mmHg 57%
01:00 -1°C° 0 mm 2 mps 766 mmHg 57%
02:00 -1°C° 0 mm 2 mps 765 mmHg 57%
03:00 -1°C° 0 mm 2 mps 765 mmHg 58%
04:00 -1°C° 0 mm 2 mps 765 mmHg 59%
05:00 -2°C° 0 mm 2 mps 764 mmHg 60%
06:00 -1°C° 0 mm 2 mps 764 mmHg 58%
07:00 -1°C° 0 mm 2 mps 764 mmHg 56%
08:00 +1°C° 0 mm 2 mps 763 mmHg 54%
09:00 +1°C° 0 mm 3 mps 763 mmHg 51%
10:00 +1°C° 0 mm 4 mps 762 mmHg 49%
11:00 +3°C° 0 mm 5 mps 762 mmHg 46%
12:00 +3°C° 0 mm 5 mps 761 mmHg 42%
13:00 +5°C° 0 mm 4 mps 760 mmHg 38%
14:00 +6°C° 0 mm 4 mps 760 mmHg 35%
15:00 +6°C° 0 mm 4 mps 759 mmHg 35%
16:00 +5°C° 0 mm 4 mps 758 mmHg 34%
17:00 +5°C° 0 mm 3 mps 758 mmHg 34%
18:00 +4°C° 0 mm 3 mps 757 mmHg 37%
19:00 +4°C° 0 mm 2 mps 757 mmHg 40%
20:00 +3°C° 0 mm 2 mps 757 mmHg 43%
21:00 +3°C° 0 mm 2 mps 757 mmHg 45%
22:00 +3°C° 0 mm 2 mps 757 mmHg 48%
23:00 +2°C° 0 mm 2 mps 757 mmHg 51%

8 March, Monday

Time Temperature Precipitation Wind Pressure Humidity
00:00 +3°C° 0 mm 1 mps 756 mmHg 53%
01:00 +3°C° 0 mm 1 mps 756 mmHg 55%
02:00 +2°C° 0 mm 1 mps 756 mmHg 57%
03:00 +2°C° 0 mm 1 mps 756 mmHg 57%
04:00 +2°C° 0 mm 1 mps 755 mmHg 58%
05:00 +2°C° 0 mm 1 mps 755 mmHg 59%
06:00 +2°C° 0 mm 1 mps 755 mmHg 57%
07:00 +3°C° 0 mm 1 mps 755 mmHg 55%
08:00 +3°C° 0 mm 1 mps 756 mmHg 52%
09:00 +4°C° 0 mm 2 mps 755 mmHg 50%
10:00 +4°C° 0 mm 4 mps 755 mmHg 47%
11:00 +5°C° 0 mm 5 mps 755 mmHg 45%
12:00 +5°C° 0 mm 5 mps 755 mmHg 44%
13:00 +6°C° 0 mm 5 mps 755 mmHg 43%
14:00 +6°C° 0 mm 5 mps 755 mmHg 42%
15:00 +6°C° 0 mm 5 mps 755 mmHg 44%
16:00 +5°C° 0 mm 5 mps 755 mmHg 45%
17:00 +5°C° 0 mm 5 mps 755 mmHg 47%
18:00 +3°C° 0 mm 5 mps 755 mmHg 53%
19:00 +3°C° 0 mm 4 mps 756 mmHg 60%
20:00 +2°C° 0 mm 3 mps 756 mmHg 67%
21:00 +1°C° 0 mm 4 mps 757 mmHg 67%
22:00 0°C° 0 mm 4 mps 757 mmHg 67%
23:00 0°C° 0 mm 4 mps 758 mmHg 67%

9 March, Tuesday

Time Temperature Precipitation Wind Pressure Humidity
00:00 -1°C° 0 mm 4 mps 758 mmHg 65%
01:00 -2°C° 0 mm 4 mps 758 mmHg 63%
02:00 -2°C° 0 mm 4 mps 758 mmHg 60%
03:00 -3°C° 0 mm 4 mps 759 mmHg 62%
04:00 -3°C° 0 mm 4 mps 759 mmHg 63%
05:00 -3°C° 0 mm 4 mps 759 mmHg 65%
06:00 -4°C° 0 mm 5 mps 760 mmHg 62%
07:00 -4°C° 0 mm 5 mps 760 mmHg 59%
08:00 -4°C° 0 mm 6 mps 760 mmHg 57%
09:00 -3°C° 0 mm 6 mps 761 mmHg 52%
10:00 -3°C° 0 mm 6 mps 761 mmHg 48%
11:00 -2°C° 0 mm 6 mps 761 mmHg 43%
12:00 -2°C° 0 mm 6 mps 762 mmHg 40%
13:00 -2°C° 0 mm 6 mps 762 mmHg 38%
14:00 -1°C° 0 mm 6 mps 762 mmHg 35%
15:00 -1°C° 0 mm 5 mps 762 mmHg 35%
16:00 -1°C° 0 mm 5 mps 762 mmHg 34%
17:00 -1°C° 0 mm 5 mps 762 mmHg 34%
18:00 -2°C° 0 mm 4 mps 763 mmHg 38%
19:00 -1°C° 0 mm 3 mps 763 mmHg 41%
20:00 -2°C° 0 mm 2 mps 764 mmHg 45%
21:00 -2°C° 0 mm 2 mps 764 mmHg 45%
22:00 0°C° 0 mm 1 mps 764 mmHg 44%
23:00 0°C° 0 mm 1 mps 764 mmHg 44%
Show more